When you browse on this site, cookies collect data to enhance your experience and personalize the content and advertising you see.
Visit our Privacy Policy to learn more. By continuing to use the site, you agree to this use of cookies and data.
  • In Schweiz
  • Länderverzeichnis
  • Für 7 Tage
  • Wassertemperatur
  • Wetterkarte
  • Widgets
  • user-avatar
    Anmelden

    Stündliche Wetter Guanare

    Heute, 24 August, Samstag

    Zeit Temperatur Niederschläge Wind Luftdruck Luftfeuchtigkeit
    00:00 +22°C° 0 mm 0 m/S 743 mmHg 96%
    01:00 +22°C° 0 mm 0 m/S 742 mmHg 96%
    02:00 +22°C° 0 mm 0 m/S 742 mmHg 96%
    03:00 +24°C° 0 mm 1 m/S 742 mmHg 96%
    04:00 +23°C° 0 mm 1 m/S 742 mmHg 96%
    05:00 +22°C° 0 mm 0 m/S 743 mmHg 94%
    06:00 +23°C° 0 mm 0 m/S 743 mmHg 93%
    07:00 +23°C° 0 mm 0 m/S 743 mmHg 92%
    08:00 +25°C° 0.5 mm 0 m/S 743 mmHg 86%
    09:00 +29°C° 0.5 mm 1 m/S 744 mmHg 80%
    10:00 +30°C° 0.5 mm 1 m/S 744 mmHg 73%
    11:00 +30°C° 2 mm 1 m/S 743 mmHg 78%
    12:00 +30°C° 2 mm 1 m/S 742 mmHg 83%
    13:00 +29°C° 2 mm 2 m/S 742 mmHg 88%
    14:00 +29°C° 1 mm 1 m/S 741 mmHg 89%
    15:00 +28°C° 1 mm 1 m/S 741 mmHg 91%
    16:00 +26°C° 1 mm 0 m/S 740 mmHg 92%
    17:00 +25°C° 0.1 mm 0 m/S 741 mmHg 93%
    18:00 +24°C° 0.1 mm 0 m/S 741 mmHg 94%
    19:00 +23°C° 0.1 mm 0 m/S 742 mmHg 95%
    20:00 +23°C° 0.1 mm 0 m/S 742 mmHg 94%
    21:00 +22°C° 0.1 mm 0 m/S 743 mmHg 94%
    22:00 +24°C° 0.1 mm 1 m/S 743 mmHg 94%
    23:00 +24°C° 0 mm 1 m/S 743 mmHg 94%

    Morgen, 25 August, Sonntag

    Zeit Temperatur Niederschläge Wind Luftdruck Luftfeuchtigkeit
    00:00 +22°C° 0 mm 0 m/S 742 mmHg 94%
    01:00 +21°C° 0 mm 0 m/S 742 mmHg 94%
    02:00 +21°C° 0.1 mm 0 m/S 742 mmHg 94%
    03:00 +21°C° 0.1 mm 0 m/S 742 mmHg 94%
    04:00 +21°C° 0.1 mm 0 m/S 742 mmHg 94%
    05:00 +22°C° 0.2 mm 0 m/S 742 mmHg 93%
    06:00 +22°C° 0.2 mm 0 m/S 742 mmHg 91%
    07:00 +23°C° 0.2 mm 0 m/S 743 mmHg 90%
    08:00 +27°C° 0 mm 1 m/S 743 mmHg 83%
    09:00 +29°C° 0 mm 1 m/S 743 mmHg 76%
    10:00 +31°C° 0 mm 1 m/S 743 mmHg 69%
    11:00 +31°C° 0.1 mm 1 m/S 743 mmHg 66%
    12:00 +32°C° 0.1 mm 1 m/S 742 mmHg 64%
    13:00 +32°C° 0.1 mm 1 m/S 741 mmHg 62%
    14:00 +31°C° 0.6 mm 1 m/S 741 mmHg 68%
    15:00 +31°C° 0.6 mm 1 m/S 740 mmHg 74%
    16:00 +30°C° 0.6 mm 1 m/S 740 mmHg 79%
    17:00 +29°C° 0.8 mm 1 m/S 740 mmHg 84%
    18:00 +27°C° 0.8 mm 1 m/S 741 mmHg 89%
    19:00 +26°C° 0.8 mm 1 m/S 741 mmHg 94%
    20:00 +25°C° 0.4 mm 1 m/S 742 mmHg 95%
    21:00 +25°C° 0.4 mm 1 m/S 742 mmHg 95%
    22:00 +25°C° 0.4 mm 1 m/S 743 mmHg 96%
    23:00 +24°C° 1.1 mm 1 m/S 742 mmHg 96%

    übermorgen, 26 August, Montag

    Zeit Temperatur Niederschläge Wind Luftdruck Luftfeuchtigkeit
    00:00 +24°C° 1.1 mm 1 m/S 742 mmHg 96%
    01:00 +24°C° 1.1 mm 1 m/S 742 mmHg 97%
    02:00 +24°C° 0.8 mm 1 m/S 742 mmHg 97%
    03:00 +24°C° 0.8 mm 1 m/S 742 mmHg 96%
    04:00 +23°C° 0.8 mm 1 m/S 742 mmHg 96%
    05:00 +24°C° 0.7 mm 1 m/S 742 mmHg 96%
    06:00 +22°C° 0.7 mm 0 m/S 743 mmHg 96%
    07:00 +23°C° 0.7 mm 0 m/S 743 mmHg 95%
    08:00 +24°C° 0.8 mm 0 m/S 743 mmHg 94%
    09:00 +25°C° 0.8 mm 0 m/S 743 mmHg 93%
    10:00 +25°C° 0.8 mm 0 m/S 744 mmHg 91%
    11:00 +26°C° 1 mm 0 m/S 743 mmHg 88%
    12:00 +27°C° 1 mm 0 m/S 742 mmHg 84%
    13:00 +28°C° 1 mm 0 m/S 741 mmHg 80%
    14:00 +28°C° 0.1 mm 0 m/S 741 mmHg 77%
    15:00 +28°C° 0.1 mm 0 m/S 740 mmHg 74%
    16:00 +28°C° 0.1 mm 0 m/S 740 mmHg 71%
    17:00 +27°C° 0.1 mm 0 m/S 740 mmHg 77%
    18:00 +25°C° 0.1 mm 0 m/S 741 mmHg 83%
    19:00 +23°C° 0.1 mm 0 m/S 741 mmHg 89%
    20:00 +23°C° 0.2 mm 0 m/S 742 mmHg 90%
    21:00 +23°C° 0.2 mm 0 m/S 742 mmHg 92%
    22:00 +24°C° 0.2 mm 1 m/S 743 mmHg 93%
    23:00 +24°C° 0.1 mm 1 m/S 742 mmHg 93%

    27 August, Dienstag

    Zeit Temperatur Niederschläge Wind Luftdruck Luftfeuchtigkeit
    00:00 +24°C° 0.1 mm 1 m/S 742 mmHg 94%
    01:00 +24°C° 0.1 mm 1 m/S 742 mmHg 94%
    02:00 +24°C° 0 mm 1 m/S 742 mmHg 94%
    03:00 +23°C° 0 mm 1 m/S 742 mmHg 94%
    04:00 +23°C° 0 mm 1 m/S 742 mmHg 93%
    05:00 +22°C° 0 mm 0 m/S 742 mmHg 92%
    06:00 +23°C° 0 mm 0 m/S 743 mmHg 90%
    07:00 +23°C° 0 mm 0 m/S 743 mmHg 88%
    08:00 +25°C° 0.5 mm 0 m/S 743 mmHg 84%
    09:00 +26°C° 0.5 mm 0 m/S 743 mmHg 80%
    10:00 +30°C° 0.5 mm 1 m/S 743 mmHg 76%
    11:00 +30°C° 0.3 mm 1 m/S 743 mmHg 74%
    12:00 +30°C° 0.3 mm 1 m/S 742 mmHg 72%
    13:00 +31°C° 0.3 mm 2 m/S 741 mmHg 70%
    14:00 +30°C° 0.4 mm 1 m/S 741 mmHg 73%
    15:00 +30°C° 0.4 mm 1 m/S 740 mmHg 76%
    16:00 +30°C° 0.4 mm 1 m/S 740 mmHg 79%
    17:00 +28°C° 0.2 mm 1 m/S 740 mmHg 84%
    18:00 +25°C° 0.2 mm 0 m/S 740 mmHg 88%
    19:00 +24°C° 0.2 mm 0 m/S 741 mmHg 93%
    20:00 +23°C° 0 mm 0 m/S 741 mmHg 93%
    21:00 +25°C° 0 mm 1 m/S 742 mmHg 94%
    22:00 +25°C° 0 mm 1 m/S 742 mmHg 94%
    23:00 +25°C° 0 mm 1 m/S 742 mmHg 94%

    28 August, Mittwoch

    Zeit Temperatur Niederschläge Wind Luftdruck Luftfeuchtigkeit
    00:00 +24°C° 0 mm 1 m/S 742 mmHg 94%
    01:00 +22°C° 0 mm 0 m/S 741 mmHg 94%
    02:00 +22°C° 0 mm 0 m/S 741 mmHg 93%
    03:00 +24°C° 0 mm 1 m/S 741 mmHg 93%
    04:00 +24°C° 0 mm 1 m/S 741 mmHg 93%
    05:00 +24°C° 0 mm 1 m/S 742 mmHg 91%
    06:00 +23°C° 0 mm 0 m/S 742 mmHg 89%
    07:00 +24°C° 0 mm 0 m/S 743 mmHg 87%
    08:00 +26°C° 0 mm 0 m/S 743 mmHg 79%
    09:00 +30°C° 0 mm 1 m/S 743 mmHg 71%
    10:00 +32°C° 0 mm 1 m/S 743 mmHg 64%
    11:00 +32°C° 0.3 mm 1 m/S 742 mmHg 66%
    12:00 +32°C° 0.3 mm 2 m/S 741 mmHg 69%
    13:00 +32°C° 0.3 mm 2 m/S 740 mmHg 71%
    14:00 +31°C° 2.1 mm 1 m/S 740 mmHg 77%
    15:00 +30°C° 2.1 mm 1 m/S 740 mmHg 84%
    16:00 +27°C° 2.1 mm 0 m/S 739 mmHg 90%
    17:00 +28°C° 2.9 mm 1 m/S 740 mmHg 92%
    18:00 +27°C° 2.9 mm 1 m/S 740 mmHg 93%
    19:00 +26°C° 2.9 mm 1 m/S 741 mmHg 95%
    20:00 +25°C° 0.3 mm 1 m/S 741 mmHg 95%
    21:00 +25°C° 0.3 mm 1 m/S 741 mmHg 95%
    22:00 +25°C° 0.3 mm 1 m/S 742 mmHg 94%
    23:00 +25°C° 0 mm 1 m/S 741 mmHg 94%

    29 August, Donnerstag

    Zeit Temperatur Niederschläge Wind Luftdruck Luftfeuchtigkeit
    00:00 +24°C° 0 mm 1 m/S 741 mmHg 94%
    01:00 +22°C° 0 mm 0 m/S 741 mmHg 93%
    02:00 +22°C° 0.2 mm 0 m/S 740 mmHg 93%
    03:00 +24°C° 0.2 mm 1 m/S 740 mmHg 93%
    04:00 +24°C° 0.2 mm 1 m/S 740 mmHg 93%
    05:00 +25°C° 0 mm 1 m/S 741 mmHg 91%
    06:00 +23°C° 0 mm 0 m/S 741 mmHg 89%
    07:00 +24°C° 0 mm 0 m/S 742 mmHg 87%
    08:00 +28°C° 0 mm 1 m/S 742 mmHg 80%
    09:00 +30°C° 0 mm 1 m/S 742 mmHg 73%
    10:00 +32°C° 0 mm 1 m/S 743 mmHg 65%
    11:00 +32°C° 0.3 mm 2 m/S 742 mmHg 66%
    12:00 +32°C° 0.3 mm 2 m/S 741 mmHg 68%
    13:00 +32°C° 0.3 mm 2 m/S 740 mmHg 69%
    14:00 +32°C° 1 mm 2 m/S 740 mmHg 74%
    15:00 +31°C° 1 mm 1 m/S 739 mmHg 79%
    16:00 +31°C° 1 mm 1 m/S 739 mmHg 85%
    17:00 +29°C° 1.2 mm 1 m/S 739 mmHg 87%
    18:00 +28°C° 1.2 mm 1 m/S 740 mmHg 90%
    19:00 +26°C° 1.2 mm 1 m/S 740 mmHg 93%
    20:00 +25°C° 1.7 mm 1 m/S 741 mmHg 94%
    21:00 +25°C° 1.7 mm 1 m/S 741 mmHg 95%
    22:00 +25°C° 1.7 mm 1 m/S 742 mmHg 96%
    23:00 +25°C° 0.5 mm 1 m/S 742 mmHg 96%
    Mehr zeigen